Latest Weather Observations for Aireys Inlet

IDV60801

Issued at 8:05 pm EST Wednesday 23 April 2014 (issued every 30 minutes, with the page automatically refreshed every 10 minutes)

About weather observations | Map of weather stations | Latest weather observations for VIC | Other Formats
Station Details ID: 090180 Name: AIREYS INLET Lat: -38.46 Lon: 144.09 Height: 95.0 m
Data from the previous 72 hours. | See also: Recent months at Aireys Inlet
Date/Time
EST
Temp
°C
App
Temp
°C
Dew
Point
Rel
Hum
%
Delta-T
°C
Wind Press
QNH
hPa
Press
MSL
hPa
Rain
since 9 am
mm
Dir
 
Spd
km/h
Gust
km/h
Spd
kts
Gust
kts
23/08:00pm 13.9 11.3 7.9 67 3.0 NW 11 15 6 8 - - 0.0
23/07:30pm 13.7 12.3 8.7 72 2.5 N 6 9 3 5 - - 0.0
23/07:00pm 13.8 12.3 8.6 71 2.6 NW 6 7 3 4 - - 0.0
23/06:30pm 13.9 12.5 8.7 71 2.6 N 6 7 3 4 - - 0.0
23/06:00pm 14.4 13.4 8.8 69 2.8 NNW 4 6 2 3 - - 0.0
23/05:30pm 14.7 13.7 8.9 68 3.0 N 4 9 2 5 - - 0.0
23/05:00pm 15.2 13.6 8.9 66 3.2 NNW 7 13 4 7 - - 0.0
23/04:30pm 16.0 13.8 9.2 64 3.5 NW 11 15 6 8 - - 0.0
23/04:00pm 16.6 13.5 8.8 60 4.0 WNW 15 28 8 15 - - 0.0
23/03:30pm 15.9 13.3 9.3 65 3.4 NW 13 19 7 10 - - 0.0
23/03:00pm 15.2 12.6 9.3 68 3.0 WNW 13 22 7 12 - - 0.0
23/02:30pm 15.1 12.4 8.8 66 3.2 NW 13 20 7 11 - - 0.0
23/02:00pm 15.1 12.8 9.0 67 3.1 NW 11 17 6 9 - - 0.0
23/01:30pm 15.2 13.3 8.9 66 3.2 NW 9 19 5 10 - - 0.0
23/01:00pm 15.0 12.6 8.7 66 3.2 WNW 11 19 6 10 - - 0.0
23/12:30pm 15.1 12.5 9.2 68 3.0 NW 13 20 7 11 - - 0.0
23/12:00pm 14.7 10.3 8.9 68 3.0 NW 22 32 12 17 - - 0.0
23/11:30am 14.9 9.7 8.8 67 3.1 WNW 26 35 14 19 - - 0.0
23/11:00am 15.8 13.6 9.5 66 3.3 NNW 11 22 6 12 - - 0.0
23/10:30am 14.8 12.9 10.6 76 2.2 NW 11 17 6 9 - - 0.0
23/10:00am 13.9 10.7 9.9 77 2.1 NW 17 22 9 12 - - 0.0
23/09:30am 13.4 9.7 10.2 81 1.7 NW 20 26 11 14 - - 0.0
23/09:00am 12.4 9.3 10.3 87 1.1 NW 17 22 9 12 - - 1.4
23/08:30am 11.3 7.6 9.4 88 1.0 NW 19 24 10 13 - - 1.4
23/08:00am 10.5 6.5 9.1 91 0.7 NW 20 26 11 14 - - 1.4
23/07:30am 9.3 5.2 8.7 96 0.3 NW 20 26 11 14 - - 1.4
23/07:00am 9.3 5.2 8.7 96 0.3 NW 20 26 11 14 - - 1.4
23/06:30am 9.2 5.1 8.7 97 0.2 NW 20 24 11 13 - - 1.4
23/06:00am 9.2 5.1 8.6 96 0.3 NW 20 24 11 13 - - 1.4
23/05:30am 9.3 5.3 8.4 94 0.4 NW 19 22 10 12 - - 1.4
23/05:00am 9.5 6.3 8.6 94 0.4 NW 15 19 8 10 - - 1.4
23/04:30am 9.4 6.6 8.6 95 0.4 NNW 13 17 7 9 - - 1.4
23/04:00am 9.3 6.5 8.5 95 0.4 NNW 13 17 7 9 - - 1.4
23/03:30am 9.4 6.6 8.6 95 0.4 NNW 13 17 7 9 - - 1.4
23/03:00am 9.6 6.5 8.7 94 0.4 NNW 15 17 8 9 - - 1.4
23/02:30am 9.5 6.7 8.6 94 0.4 NNW 13 17 7 9 - - 1.4
23/02:00am 9.7 7.0 8.8 94 0.4 NW 13 17 7 9 - - 1.4
23/01:30am 9.7 7.0 8.8 94 0.4 NNW 13 15 7 8 - - 1.4
23/01:00am 9.5 6.8 8.9 96 0.3 NNW 13 17 7 9 - - 1.4
23/12:30am 9.0 6.5 8.4 96 0.3 NNW 11 15 6 8 - - 1.4
23/12:00am 9.0 6.1 8.2 95 0.4 NW 13 19 7 10 - - 1.4
 
Date/Time
EST
Temp
°C
App
Temp
°C
Dew
Point
Rel
Hum
%
Delta-T
°C
Wind Press
QNH
hPa
Press
MSL
hPa
Rain
since 9 am
mm
Dir
 
Spd
km/h
Gust
km/h
Spd
kts
Gust
kts
22/11:30pm 9.5 7.4 8.4 93 0.5 NNW 9 13 5 7 - - 1.4
22/11:00pm 9.6 7.2 8.5 93 0.5 NNW 11 13 6 7 - - 1.4
22/10:30pm 9.8 7.1 8.9 94 0.4 NW 13 17 7 9 - - 1.4
22/10:00pm 9.9 7.9 8.8 93 0.5 NNW 9 13 5 7 - - 1.4
22/09:30pm 10.3 7.9 8.7 90 0.8 NW 11 13 6 7 - - 1.4
22/09:00pm 10.4 8.0 8.8 90 0.8 NNW 11 13 6 7 - - 1.4
22/08:30pm 10.3 8.0 9.1 92 0.6 NNW 11 13 6 7 - - 1.4
22/08:00pm 11.5 9.6 8.9 84 1.3 WNW 9 11 5 6 - - 1.4
22/07:30pm 12.2 10.2 8.5 78 1.8 W 9 11 5 6 - - 1.4
22/07:00pm 12.6 10.3 9.1 79 1.8 W 11 15 6 8 - - 1.4
22/06:30pm 13.1 10.1 9.2 77 2.0 SW 15 22 8 12 - - 1.4
22/06:00pm 13.7 9.9 9.2 74 2.3 SW 19 28 10 15 - - 1.4
22/05:30pm 14.6 10.9 10.2 75 2.3 SW 20 32 11 17 - - 1.4
22/05:00pm 14.5 10.5 10.5 77 2.1 SW 22 33 12 18 - - 1.4
22/04:30pm 14.8 10.6 11.2 79 1.9 SSW 24 37 13 20 - - 1.4
22/04:00pm 15.1 12.0 12.2 83 1.6 SW 20 32 11 17 - - 1.4
22/03:30pm 15.1 12.1 12.1 82 1.6 SSW 19 35 10 19 - - 1.4
22/03:00pm 15.7 13.3 12.8 83 1.6 SSW 17 26 9 14 - - 1.4
22/02:30pm 16.1 13.9 13.2 83 1.6 S 17 24 9 13 - - 1.4
22/02:00pm 15.3 13.5 13.3 88 1.1 SSW 15 24 8 13 - - 1.4
22/01:30pm 15.6 14.9 15.3 98 0.2 SSW 13 22 7 12 - - 1.4
22/01:00pm 14.5 13.5 14.5 100 0.0 SSW 13 20 7 11 - - 1.4
22/12:30pm 14.5 12.6 14.3 99 0.1 SW 17 28 9 15 - - 1.2
22/12:00pm 15.4 13.0 14.3 93 0.6 SW 20 32 11 17 - - 0.2
22/11:30am 17.3 14.8 13.6 79 2.1 NW 19 24 10 13 - - 0.0
22/11:00am 16.4 13.9 13.5 83 1.6 WNW 19 30 10 16 - - 0.0
22/10:30am 16.0 14.8 14.0 88 1.1 NW 13 19 7 10 - - 0.0
22/10:00am 14.3 12.4 13.0 92 0.7 NNW 15 24 8 13 - - 0.0
22/09:30am 13.7 11.7 12.6 93 0.6 N 15 20 8 11 - - 0.0
22/09:00am 13.5 12.5 12.2 92 0.7 NNE 9 15 5 8 - - 19.0
22/08:30am 13.4 11.7 12.3 93 0.6 NE 13 19 7 10 - - 19.0
22/08:00am 13.8 13.3 12.2 90 0.9 N 6 17 3 9 - - 19.0
22/07:30am 13.4 9.3 12.8 96 0.3 NNW 26 44 14 24 - - 19.0
22/07:15am 13.1 8.7 12.9 99 0.1 NNW 28 50 15 27 - - 19.0
22/07:00am 13.0 8.9 12.8 99 0.1 NNW 26 41 14 22 - - 19.0
22/06:30am 12.5 7.9 12.3 99 0.1 NNW 28 48 15 26 - - 17.6
22/06:23am 12.6 8.0 12.4 99 0.1 NNW 28 50 15 27 - - 17.2
22/06:00am 12.4 8.9 12.1 98 0.2 NNW 22 35 12 19 - - 16.4
22/05:30am 12.3 8.2 11.4 94 0.5 NNW 24 37 13 20 - - 15.2
22/05:06am 12.4 7.6 11.6 95 0.4 NW 28 48 15 26 - - 13.4
22/05:00am 12.5 7.7 11.6 94 0.5 NW 28 37 15 20 - - 12.8
22/04:30am 12.2 7.7 11.3 94 0.5 NNW 26 39 14 21 - - 12.4
22/04:08am 12.7 7.0 11.1 90 0.8 NNW 32 59 17 32 - - 10.0
22/04:00am 12.6 7.6 11.0 90 0.8 NNW 28 43 15 23 - - 9.4
22/03:35am 13.1 7.2 10.6 85 1.3 NNW 32 50 17 27 - - 8.4
22/03:30am 12.9 7.8 10.6 86 1.2 NNW 28 41 15 22 - - 8.0
22/03:00am 13.0 7.0 10.7 86 1.2 NNW 33 50 18 27 - - 7.2
22/02:41am 13.1 7.0 10.6 85 1.3 N 33 54 18 29 - - 6.2
22/02:30am 12.9 7.9 10.8 87 1.1 N 28 41 15 22 - - 5.6
22/02:00am 12.8 7.4 11.0 89 0.9 NW 30 41 16 22 - - 3.8
22/01:30am 13.0 8.7 10.9 87 1.1 WNW 24 37 13 20 - - 2.0
22/01:00am 12.9 8.7 11.0 88 1.0 NW 24 33 13 18 - - 1.4
22/12:30am 14.9 9.8 9.1 68 3.0 NNW 26 37 14 20 - - 0.4
22/12:00am 17.3 15.7 6.5 49 5.3 N 4 7 2 4 - - 0.0
 
Date/Time
EST
Temp
°C
App
Temp
°C
Dew
Point
Rel
Hum
%
Delta-T
°C
Wind Press
QNH
hPa
Press
MSL
hPa
Rain
since 9 am
mm
Dir
 
Spd
km/h
Gust
km/h
Spd
kts
Gust
kts
21/11:30pm 17.5 15.7 7.0 50 5.3 WNW 6 11 3 6 - - 0.0
21/11:00pm 17.3 14.3 7.9 54 4.8 SW 13 22 7 12 - - 0.0
21/10:30pm 17.2 15.4 7.0 51 5.1 WSW 6 9 3 5 - - 0.0
21/10:00pm 17.3 14.5 6.8 50 5.2 N 11 26 6 14 - - 0.0
21/09:30pm 17.4 12.9 6.9 50 5.2 N 20 32 11 17 - - 0.0
21/09:00pm 17.7 12.0 6.9 49 5.4 N 26 48 14 26 - - 0.0
21/08:30pm 17.3 13.4 7.1 51 5.1 NNE 17 30 9 16 - - 0.0
21/08:00pm 17.0 13.5 7.4 53 4.8 NNE 15 30 8 16 - - 0.0
21/07:30pm 17.1 14.1 7.5 53 4.8 NE 13 22 7 12 - - 0.0
21/07:00pm 17.7 15.4 7.4 51 5.2 NNE 9 19 5 10 - - 0.0
21/06:00pm 19.4 14.6 7.5 46 6.1 N 22 37 12 20 - - 0.0
21/05:30pm 19.7 16.0 8.1 47 6.0 N 17 30 9 16 - - 0.0
21/05:00pm 19.9 16.7 8.6 48 5.9 N 15 26 8 14 - - 0.0
21/04:30pm 20.6 16.4 8.3 45 6.4 N 20 33 11 18 - - 0.0
21/04:00pm 21.2 17.6 8.5 44 6.7 N 17 26 9 14 - - 0.0
21/03:30pm 21.0 15.4 8.6 45 6.5 N 28 50 15 27 - - 0.0
21/03:14pm 20.8 15.0 8.1 44 6.6 N 28 52 15 28 - - 0.0
21/03:00pm 20.9 15.5 8.2 44 6.7 N 26 43 14 23 - - 0.0
21/02:30pm 20.6 16.5 8.6 46 6.3 N 20 35 11 19 - - 0.0
21/02:00pm 19.8 15.1 7.9 46 6.2 N 22 37 12 20 - - 0.0
21/01:30pm 20.1 14.6 7.5 44 6.5 N 26 41 14 22 - - 0.0
21/01:00pm 19.3 14.2 7.7 47 6.0 N 24 43 13 23 - - 0.0
21/12:31pm 20.9 14.6 7.5 42 6.9 N 30 56 16 30 - - 0.0
21/12:30pm 21.0 15.6 8.0 43 6.8 N 26 52 14 28 - - 0.0
21/12:00pm 19.7 13.4 7.4 45 6.3 N 30 48 16 26 - - 0.0
21/11:58am 19.8 13.9 7.5 45 6.3 N 28 48 15 26 - - 0.0
21/11:30am 19.2 14.5 7.9 48 5.8 N 22 39 12 21 - - 0.0
21/11:00am 16.7 12.7 8.4 58 4.3 N 19 28 10 15 - - 0.0
21/10:30am 15.4 11.3 7.9 61 3.8 NNW 19 33 10 18 - - 0.0
21/10:00am 14.3 10.8 7.4 63 3.4 NNW 15 22 8 12 - - 0.0
21/09:30am 13.5 9.0 7.1 65 3.1 NNW 20 30 11 16 - - 0.0
21/09:00am 13.3 7.2 6.4 63 3.3 NW 28 37 15 20 - - 0.0
21/08:30am 13.1 7.7 6.2 63 3.3 NW 24 33 13 18 - - 0.0
21/08:00am 12.9 8.8 6.3 64 3.2 NNW 17 26 9 14 - - 0.0
21/07:30am 12.9 9.2 6.3 64 3.2 NNW 15 22 8 12 - - 0.0
21/07:00am 12.8 9.0 5.9 63 3.3 NNW 15 26 8 14 - - 0.0
21/06:30am 12.9 9.5 5.8 62 3.4 N 13 22 7 12 - - 0.0
21/06:00am 12.4 10.1 5.8 64 3.1 NNW 7 13 4 7 - - 0.0
21/05:30am 12.4 10.3 5.8 64 3.1 WNW 6 17 3 9 - - 0.0
21/05:00am 12.1 10.0 5.7 65 3.0 ENE 6 11 3 6 - - 0.0
21/04:30am 12.3 9.7 5.9 65 3.0 NE 9 13 5 7 - - 0.0
21/04:00am 12.7 10.1 6.1 64 3.1 N 9 15 5 8 - - 0.0
21/03:30am 12.8 9.9 6.4 65 3.1 N 11 17 6 9 - - 0.0
21/03:00am 12.8 9.5 6.4 65 3.1 N 13 17 7 9 - - 0.0
21/02:30am 12.3 9.9 7.0 70 2.6 N 9 11 5 6 - - 0.0
21/02:00am 12.5 9.5 7.6 72 2.4 N 13 19 7 10 - - 0.0
21/01:30am 13.2 9.5 7.9 70 2.6 N 17 22 9 12 - - 0.0
21/01:00am 13.0 9.8 8.3 73 2.3 N 15 20 8 11 - - 0.0
21/12:30am 13.4 10.4 9.3 76 2.1 N 15 19 8 10 - - 0.0
21/12:00am 13.0 11.4 10.2 83 1.5 NNW 9 13 5 7 - - 0.0
 
Date/Time
EST
Temp
°C
App
Temp
°C
Dew
Point
Rel
Hum
%
Delta-T
°C
Wind Press
QNH
hPa
Press
MSL
hPa
Rain
since 9 am
mm
Dir
 
Spd
km/h
Gust
km/h
Spd
kts
Gust
kts
20/11:30pm 12.9 11.6 9.9 82 1.5 NW 7 9 4 5 - - 0.0
20/11:00pm 13.4 12.2 10.2 81 1.7 NW 7 9 4 5 - - 0.0
20/10:30pm 12.7 11.4 9.9 83 1.4 N 7 11 4 6 - - 0.0
20/10:00pm 13.5 12.4 9.9 79 1.9 N 6 7 3 4 - - 0.0
20/09:30pm 14.5 13.4 9.9 74 2.4 NW 6 9 3 5 - - 0.0
20/09:00pm 14.6 13.3 9.8 73 2.5 NNW 7 9 4 5 - - 0.0
20/08:30pm 14.5 12.8 9.9 74 2.4 NW 9 13 5 7 - - 0.0

Other Formats:

Comma delimited format used in spreadsheet applications
http://www.bom.gov.au/fwo/IDV60801/IDV60801.94846.axf

JavaScript Object Notation format (JSON) in row-major order
http://www.bom.gov.au/fwo/IDV60801/IDV60801.94846.json